sat.trackr.live / text

‹ back to catalog

STARLINK-36085

NORAD 67035 · 2025-294F

PAYLOAD ACTIVE UNKNOWN

§ Identity

Operator
Country
US
Launch date
2025-12-11
Launch site
AFETR
Launch vehicle
Mass (kg)
RCS (m²)

Purposes: comms

External: N2YO · Heavens-Above · Gunter

§ Orbital elements

Epoch: 2026-05-24T20:30:28.543392Z

Period
94.27 min
Inclination
43.0013°
Eccentricity
0.0001252
Mean motion
15.27590428 rev/d
Perigee alt
482.2 km
Apogee alt
483.9 km
Semi-major
6,861.2 km
B*
7.4126e-4
RAAN
328.2815°
Arg perigee
269.3979°
Mean anomaly
90.6729°
Rev number
2,644

§ Raw data

STARLINK-360851 67035U 25294F   26144.85449703  .00020198  00000+0  74126-3 0  99922 67035  43.0013 328.2815 0001252 269.3979  90.6729 15.27590428 26440

JSON: /api/v1/satellites/67035 · /tle

For live sub-satellite position, see the globe view (requires WebGL).

§ Visibility from observer

Set your observer location to see the next 7 days of passes ≥ 10°. The values pass through the URL so the page stays shareable.

No JS? Fill the form by hand. The geolocation button needs JavaScript.